Weather History for KCOQ - December, 2013

Change the Weather History Date:

Saturday, December 28, 2013

  Actual Average Record
Temperature  
Mean Temperature 18 °F -  
Max Temperature 28 °F 18 °F 39 °F (2003)
Min Temperature 6 °F 4 °F 0 °F (2014)
Degree Days  
Heating Degree Days 47    
Moisture  
Dew Point 23 °F    
Average Humidity 94    
Maximum Humidity 100    
Minimum Humidity 79    
Precipitation  
Precipitation 0.00 in - - ()
Sea Level Pressure  
Sea Level Pressure 29.83 in    
Wind  
Wind Speed 5 mph (NE)    
Max Wind Speed 17 mph    
Max Gust Speed 28 mph    
Visibility 4 miles    
Events Fog , Snow    
Averages and records for this station are not official NWS values.
T = Trace of Precipitation, MM = Missing Value Source: NWS Daily Summary

Daily Weather History Graph

Daily Weather History Graph

Search for Another Location

Airport or City:

Trip Planner

Search our weather history database for the weather conditions in past years. The results will help you decide how hot, cold, wet, or windy it might be!

Date:

Astronomy

Dec. 28, 2013 Rise Set
Actual Time 7:54 AM CST 4:29 PM CST
Civil Twilight 7:19 AM CST 5:04 PM CST
Nautical Twilight 6:40 AM CST 5:43 PM CST
Astronomical Twilight 6:03 AM CST 6:19 PM CST
Moon 3:23 AM CST (12/28) 1:28 PM CST (12/28)
Length of Visible Light 9h 45m
Length of Day
8h 35m
Waning Crescent, 19% of the Moon is Illuminated
Dec 28
Waning Crescent
Jan 1
New
Jan 7
First Quarter
Jan 15
Full
Jan 23
Last Quarter

Hourly Weather History & Observations

Time (CST) Temp. Windchill Dew Point Humidity Pressure Visibility Wind Dir Wind Speed Gust Speed Precip Events Conditions
12:16 AM 28.4 °F - 26.6 °F 93% 29.88 in - Calm Calm - N/A   Overcast
12:36 AM 28.4 °F 23.3 °F 26.6 °F 93% 29.89 in 10.0 mi SW 4.6 mph - N/A   Overcast
12:56 AM 28.4 °F 22.2 °F 26.6 °F 93% 29.89 in 10.0 mi WSW 5.8 mph - N/A   Overcast
1:16 AM 28.4 °F 20.4 °F 26.6 °F 93% 29.90 in 10.0 mi WSW 8.1 mph - N/A   Overcast
1:36 AM 28.4 °F 22.2 °F 26.6 °F 93% 29.89 in 10.0 mi WSW 5.8 mph - N/A   Overcast
1:56 AM 28.4 °F 23.3 °F 26.6 °F 93% 29.88 in 10.0 mi SW 4.6 mph - N/A   Overcast
2:16 AM 28.4 °F - 26.6 °F 93% 29.88 in 10.0 mi Calm Calm - N/A   Overcast
2:36 AM 28.4 °F 24.6 °F 26.6 °F 93% 29.87 in 10.0 mi South 3.5 mph - N/A   Overcast
2:56 AM 28.4 °F - 26.6 °F 93% 29.86 in 10.0 mi Calm Calm - N/A   Overcast
3:16 AM 28.4 °F - 26.6 °F 93% 29.86 in 10.0 mi Calm Calm - N/A   Overcast
3:36 AM 28.4 °F 24.6 °F 26.6 °F 93% 29.86 in 10.0 mi WSW 3.5 mph - N/A   Overcast
3:56 AM 28.4 °F - 26.6 °F 93% 29.85 in 10.0 mi Calm Calm - N/A   Overcast
4:16 AM 28.4 °F 24.6 °F 26.6 °F 93% 29.84 in 10.0 mi SSW 3.5 mph - N/A   Overcast
4:36 AM 28.4 °F - 26.6 °F 93% 29.84 in 10.0 mi Calm Calm - N/A   Overcast
4:56 AM 28.4 °F - 26.6 °F 93% 29.82 in 7.0 mi Calm Calm - N/A   Overcast
5:16 AM 28.4 °F - 26.6 °F 93% 29.82 in 5.0 mi Calm Calm - N/A   Overcast
5:36 AM 28.4 °F - 26.6 °F 93% 29.81 in 1.8 mi Calm Calm - N/A   Overcast
5:56 AM 28.4 °F - 26.6 °F 93% 29.81 in 0.8 mi Calm Calm - N/A   Overcast
6:16 AM 28.4 °F - 26.6 °F 93% 29.80 in 1.0 mi Calm Calm - N/A   Overcast
6:35 AM 28.4 °F 24.6 °F 26.6 °F 93% 29.81 in 1.0 mi SW 3.5 mph - N/A   Overcast
6:56 AM 28.4 °F - 26.6 °F 93% 29.81 in 1.0 mi Calm Calm - N/A   Overcast
7:16 AM 28.4 °F 24.6 °F 26.6 °F 93% 29.80 in 1.5 mi South 3.5 mph - N/A   Overcast
7:35 AM 28.4 °F 24.6 °F 26.6 °F 93% 29.80 in 1.5 mi South 3.5 mph - N/A   Overcast
7:56 AM 28.4 °F - 26.6 °F 93% 29.80 in 0.8 mi Calm Calm - N/A   Overcast
8:13 AM 26.6 °F 20.0 °F 26.6 °F 100% 29.79 in 0.8 mi South 5.8 mph - N/A   Overcast
8:36 AM 26.6 °F 22.6 °F 26.6 °F 100% 29.79 in 0.2 mi South 3.5 mph - N/A Fog Light Freezing Fog
8:56 AM 26.6 °F - 26.6 °F 100% 29.79 in 0.2 mi Calm Calm - N/A Fog Light Freezing Fog
9:16 AM 26.6 °F - 26.6 °F 100% 29.79 in 0.2 mi Calm Calm - N/A Fog Light Freezing Fog
9:35 AM 26.6 °F - 26.6 °F 100% 29.78 in 0.2 mi Calm Calm - N/A Fog Light Freezing Fog
9:56 AM 26.6 °F - 26.6 °F 100% 29.79 in 0.2 mi Calm Calm - N/A Fog Light Freezing Fog
10:16 AM 26.6 °F - 26.6 °F 100% 29.78 in 0.2 mi Calm Calm - N/A Fog Light Freezing Fog
10:36 AM 28.4 °F - 26.6 °F 93% 29.78 in 0.2 mi Calm Calm - N/A Fog Light Freezing Fog
10:56 AM 28.4 °F - 26.6 °F 93% 29.78 in 0.2 mi Calm Calm - N/A Fog Light Freezing Fog
11:16 AM 28.4 °F 24.6 °F 26.6 °F 93% 29.78 in 0.2 mi ENE 3.5 mph - N/A Fog Light Freezing Fog
11:36 AM 28.4 °F 23.3 °F 26.6 °F 93% 29.76 in 0.2 mi ENE 4.6 mph - N/A Fog Light Freezing Fog
11:56 AM 28.4 °F 24.6 °F 28.4 °F 100% 29.75 in 0.2 mi East 3.5 mph - N/A Fog Light Freezing Fog
12:16 PM 28.4 °F - 28.4 °F 100% 29.75 in 0.5 mi Calm Calm - N/A Fog Light Freezing Fog
12:28 PM 28.4 °F - 28.4 °F 100% 29.74 in 0.2 mi Calm Calm - N/A Fog Light Freezing Fog
12:56 PM 28.4 °F 23.3 °F 28.4 °F 100% 29.72 in 1.2 mi East 4.6 mph - N/A   Overcast
1:16 PM 28.4 °F 21.2 °F 28.4 °F 100% 29.71 in 0.2 mi East 6.9 mph - N/A Fog Light Freezing Fog
1:36 PM 28.4 °F 21.2 °F 28.4 °F 100% 29.70 in 0.2 mi East 6.9 mph - N/A Fog Light Freezing Fog
1:56 PM 28.4 °F 23.3 °F 28.4 °F 100% 29.70 in 0.5 mi East 4.6 mph - N/A Fog Light Freezing Fog
2:16 PM 28.4 °F 21.2 °F 28.4 °F 100% 29.70 in 0.5 mi East 6.9 mph - N/A Fog Light Freezing Fog
2:36 PM 28.4 °F 20.4 °F 28.4 °F 100% 29.71 in 1.0 mi ENE 8.1 mph - N/A   Overcast
2:56 PM 28.4 °F 21.2 °F 28.4 °F 100% 29.73 in 3.0 mi ENE 6.9 mph - N/A   Overcast
3:16 PM 28.4 °F 19.7 °F 28.4 °F 100% 29.72 in 2.5 mi ENE 9.2 mph - N/A   Overcast
3:36 PM 28.4 °F 18.5 °F 28.4 °F 100% 29.72 in 3.0 mi NE 11.5 mph - N/A   Overcast
3:55 PM 28.4 °F 17.5 °F 28.4 °F 100% 29.72 in 3.0 mi NE 13.8 mph 17.3 mph N/A   Overcast
4:16 PM 28.4 °F 19.7 °F 28.4 °F 100% 29.73 in 4.0 mi ENE 9.2 mph 18.4 mph N/A   Overcast
4:35 PM 26.6 °F 14.7 °F 26.6 °F 100% 29.75 in 10.0 mi East 15.0 mph 20.7 mph N/A   Overcast
4:56 PM 26.6 °F 13.8 °F 24.8 °F 93% 29.78 in 7.0 mi ENE 17.3 mph 23.0 mph N/A   Overcast
5:16 PM 26.6 °F 16.2 °F 24.8 °F 93% 29.79 in 7.0 mi ENE 11.5 mph - N/A   Overcast
5:36 PM 24.8 °F 12.9 °F 24.8 °F 100% 29.81 in 7.0 mi NE 13.8 mph 24.2 mph N/A   Overcast
5:56 PM 24.8 °F 11.5 °F 24.8 °F 100% 29.82 in 5.0 mi NE 17.3 mph - N/A   Overcast
6:16 PM 24.8 °F 14.6 °F 23.0 °F 93% 29.83 in 5.0 mi ENE 10.4 mph 16.1 mph N/A   Overcast
6:36 PM 24.8 °F 14.0 °F 23.0 °F 93% 29.85 in 4.0 mi NE 11.5 mph - N/A   Overcast
6:56 PM 24.8 °F 12.9 °F 23.0 °F 93% 29.87 in 4.0 mi NNE 13.8 mph - N/A   Overcast
7:16 PM 24.8 °F 14.6 °F 21.2 °F 86% 29.88 in 5.0 mi NNE 10.4 mph - N/A   Overcast
7:36 PM 24.8 °F 13.4 °F 21.2 °F 86% 29.89 in 5.0 mi North 12.7 mph 18.4 mph N/A   Overcast
7:55 PM 19.4 °F 5.5 °F 17.6 °F 93% 29.90 in 2.0 mi North 15.0 mph 24.2 mph N/A Snow Light Snow
8:16 PM 17.6 °F 4.3 °F 15.8 °F 93% 29.92 in 4.0 mi North 12.7 mph 21.9 mph N/A   Overcast
8:36 PM 15.8 °F 1.4 °F 12.2 °F 86% 29.94 in 4.0 mi North 13.8 mph 24.2 mph N/A   Overcast
8:56 PM 14.0 °F 0.5 °F 10.4 °F 86% 29.95 in 5.0 mi North 11.5 mph 19.6 mph N/A   Overcast
9:16 PM 12.2 °F 0.7 °F 10.4 °F 92% 29.95 in 2.0 mi North 8.1 mph - N/A Snow Light Snow
9:35 PM 12.2 °F -1.0 °F 8.6 °F 85% 29.96 in 5.0 mi North 10.4 mph 25.3 mph N/A Snow Light Snow
9:56 PM 10.4 °F -7.2 °F 6.8 °F 85% 29.97 in 10.0 mi North 17.3 mph 26.5 mph N/A   Overcast
10:16 PM 10.4 °F -4.1 °F 6.8 °F 85% 29.98 in 10.0 mi North 11.5 mph 21.9 mph N/A   Overcast
10:35 PM 10.4 °F -6.6 °F 5.0 °F 79% 29.98 in 10.0 mi North 16.1 mph 27.6 mph N/A   Overcast
10:56 PM 10.4 °F -6.6 °F 5.0 °F 79% 30.01 in 10.0 mi NNW 16.1 mph 25.3 mph N/A   Overcast
11:16 PM 8.6 °F -8.9 °F 3.2 °F 79% 30.02 in 10.0 mi NNW 16.1 mph 25.3 mph N/A   Overcast
11:35 PM 8.6 °F -9.5 °F 3.2 °F 79% 30.03 in 10.0 mi NNW 17.3 mph 26.5 mph N/A Snow Light Snow
11:56 PM 6.8 °F -11.3 °F 1.4 °F 79% 30.04 in 7.0 mi NNW 16.1 mph 23.0 mph N/A Snow Light Snow